Location: Newark
(6.1167°N, 1.2167°E)
Time: 18:54:58
(UTC+00:00)

N. Korean satellite - Visible Passes

Search period start: 23 March 2019 00:00
Search period end: 02 April 2019 00:00
Orbit: 456 x 510 km, 97.2° (Epoch: 22 March)

Date Brightness Start Highest point End Pass type
(mag) Time Alt. Az. Time Alt. Az. Time Alt. Az.
24 Mar 7.5 05:34:29 10° NNE 05:38:03 56° E 05:41:40 10° S visible
25 Mar 9.5 05:10:26 10° NE 05:13:17 22° E 05:16:09 10° SSE visible
28 Mar 8.0 05:28:40 10° NNE 05:32:10 44° E 05:35:43 10° S visible
29 Mar 9.8 05:04:51 10° NE 05:07:24 18° E 05:09:58 10° SE visible
29 Mar 10.0 18:30:01 10° SW 18:31:29 12° W 18:32:57 10° WNW visible
01 Apr 8.5 05:22:50 10° NNE 05:26:15 36° E 05:29:41 10° SSE visible
